Weather History for KUIN - June, 2012

Change the Weather History Date:

Saturday, June 2, 2012

  Actual Average Record
Temperature  
Mean Temperature 65 °F 68 °F  
Max Temperature 78 °F 78 °F 102 °F (1934)
Min Temperature 52 °F 58 °F 43 °F (1956)
Degree Days  
Heating Degree Days 0 2  
Month to date heating degree days 4  
Since 1 June heating degree days 4  
Since 1 July heating degree days 5570  
Cooling Degree Days 0 5  
Month to date cooling degree days 9  
Year to date cooling degree days 95  
Since 1 June cooling degree days 9  
Growing Degree Days 15 (Base 50)    
Moisture  
Dew Point 49 °F    
Average Humidity 58    
Maximum Humidity 80    
Minimum Humidity 37    
Precipitation  
Precipitation 0.00 in 0.15 in 2.49 in (1994)
Month to date precipitation 0.30  
Year to date precipitation 14.39  
Sea Level Pressure  
Sea Level Pressure 29.84 in    
Wind  
Wind Speed 7 mph (West)    
Max Wind Speed 17 mph    
Max Gust Speed 25 mph    
Visibility 10 miles    
Events      
T = Trace of Precipitation, MM = Missing Value Source: NWS Daily Summary

Daily Weather History Graph

Daily Weather History Graph

Search for Another Location

Airport or City:

Trip Planner

Search our weather history database for the weather conditions in past years. The results will help you decide how hot, cold, wet, or windy it might be!

Date:

Astronomy

Jun. 02, 2012 Rise Set
Actual Time 5:37 AM CDT 8:28 PM CDT
Civil Twilight 5:05 AM CDT 9:00 PM CDT
Nautical Twilight 4:24 AM CDT 9:41 PM CDT
Astronomical Twilight 3:38 AM CDT 10:28 PM CDT
Moon 6:44 PM CDT (6/2) 3:56 AM CDT (6/2)
Length of Visible Light 15h 55m
Length of Day
14h 50m
Waxing Gibbous, 95% of the Moon is Illuminated
Jun 2
Waxing Gibbous
Jun 4
Full
Jun 11
Last Quarter
Jun 19
New
Jun 26
First Quarter

Hourly Weather History & Observations

Time (CDT) Temp. Dew Point Humidity Pressure Visibility Wind Dir Wind Speed Gust Speed Precip Events Conditions
12:54 AM 52.0 °F 44.1 °F 74% 29.87 in 10.0 mi SW 4.6 mph - N/A   Clear
1:54 AM 53.1 °F 45.0 °F 74% 29.86 in 10.0 mi SW 4.6 mph - N/A   Clear
2:54 AM 53.1 °F 46.0 °F 77% 29.86 in 10.0 mi SW 6.9 mph - N/A   Partly Cloudy
3:54 AM 55.0 °F 46.0 °F 72% 29.86 in 10.0 mi SW 6.9 mph - N/A   Overcast
4:54 AM 55.0 °F 46.9 °F 74% 29.86 in 10.0 mi West 5.8 mph - N/A   Overcast
5:54 AM 57.0 °F 46.9 °F 69% 29.88 in 10.0 mi West 6.9 mph - N/A   Overcast
6:54 AM 55.9 °F 50.0 °F 80% 29.88 in 10.0 mi WNW 3.5 mph - 0.00 in   Overcast
7:54 AM 57.0 °F 50.0 °F 77% 29.88 in 10.0 mi SW 5.8 mph - N/A   Overcast
8:54 AM 60.1 °F 50.0 °F 69% 29.88 in 10.0 mi SW 8.1 mph - N/A   Overcast
9:54 AM 64.9 °F 46.9 °F 52% 29.86 in 10.0 mi SSW 12.7 mph - N/A   Partly Cloudy
10:54 AM 66.0 °F 46.9 °F 50% 29.86 in 10.0 mi WSW 12.7 mph 18.4 mph N/A   Overcast
11:54 AM 70.0 °F 50.0 °F 49% 29.83 in 10.0 mi West 10.4 mph - N/A   Clear
12:54 PM 73.0 °F 52.0 °F 48% 29.82 in 10.0 mi WSW 10.4 mph 19.6 mph N/A   Scattered Clouds
1:54 PM 75.0 °F 53.1 °F 46% 29.81 in 10.0 mi West 11.5 mph 20.7 mph N/A   Mostly Cloudy
2:54 PM 77.0 °F 50.0 °F 39% 29.79 in 10.0 mi West 17.3 mph 25.3 mph N/A   Scattered Clouds
3:54 PM 78.1 °F 50.0 °F 37% 29.78 in 10.0 mi WNW 11.5 mph 23.0 mph N/A   Partly Cloudy
4:54 PM 75.9 °F 48.9 °F 38% 29.78 in 10.0 mi WNW 16.1 mph 21.9 mph N/A   Partly Cloudy
5:54 PM 75.9 °F 48.0 °F 37% 29.78 in 10.0 mi NW 15.0 mph - N/A   Clear
6:54 PM 75.9 °F 50.0 °F 40% 29.79 in 10.0 mi WNW 10.4 mph - N/A   Scattered Clouds
7:54 PM 72.0 °F 48.9 °F 44% 29.80 in 10.0 mi NW 6.9 mph - N/A   Clear
8:54 PM 68.0 °F 51.1 °F 55% 29.81 in 10.0 mi Calm Calm - N/A   Clear
9:54 PM 63.0 °F 50.0 °F 63% 29.83 in 10.0 mi Calm Calm - N/A   Clear
10:54 PM 64.0 °F 51.1 °F 63% 29.85 in 10.0 mi WNW 4.6 mph - N/A   Clear
11:54 PM 62.1 °F 50.0 °F 65% 29.85 in 10.0 mi Calm Calm - N/A   Clear